Station MKGM4 - Muskegon CG Station, Muskegon, MI Image indicating link to RSS feed of recent meteorological observations for station MKGM4


Conditions at MKGM4 as of
(6:00 pm EDT)
2200 GMT on 05/27/2024:
     

Click on the graph icon in the table below to see a time series plot of the last five days of that observation.

5-day plot - Wind Direction Wind Direction (WDIR): NW ( 310 deg true )
5-day plot - Wind Speed Wind Speed (WSPD): 24 kts
5-day plot - Wind Gust Wind Gust (GST): 27 kts
5-day plot - Atmospheric Pressure Atmospheric Pressure (PRES):29.68 in
5-day plot - Pressure Tendency Pressure Tendency (PTDY):+0.08 in ( Rising )
5-day plot - Air Temperature Air Temperature (ATMP): 56.8 °F
5-day plot - Dew Point Dew Point (DEWP): 56.1 °F
5-day plot -  Wind Speed, Wind Gust and Atmospheric Pressure Combined plot of Wind Speed, Gust, and Air Pressure
Previous observations
TIME
(EDT)
5-day plot - Wind Direction
WDIR
 
5-day plot - Wind Speed
WSPD
kts
5-day plot - Wind Gust
GST
kts
5-day plot - Wave Height
WVHT
ft
5-day plot - Dominant Wave Period
DPD
sec
5-day plot - Average Wave Period
APD
sec
5-day plot - Mean Wave Direction
MWD
 
5-day plot - Atmospheric Pressure
PRES
in
5-day plot - Pressure Tendency
PTDY
in
5-day plot - Air Temperature
ATMP
°F
5-day plot - Water Temperature
WTMP
°F
5-day plot - Dew Point
DEWP
°F
5-day plot - Salinity
SAL
psu
5-day plot - Visibility
VIS
nmi
5-day plot - Tide (above MLLW)
TIDE
ft
2024-05-27 05:50 pmWNW 25 28----29.67- 56.5- 56.1---
2024-05-27 05:40 pm NW 26 27----29.67- 55.6- 55.6---
2024-05-27 05:30 pmWNW 26 30----29.67- 55.4- 55.4---
2024-05-27 05:20 pmWNW 25 28----29.67- 55.4- 55.4---
2024-05-27 05:10 pmWNW 25 28----29.66- 55.6- 55.6---
2024-05-27 05:00 pmWNW 26 30----29.66+0.08 55.4- 55.4---
2024-05-27 04:50 pmWNW 27 29----29.65- 55.4- 55.4---
2024-05-27 04:40 pmWNW 26 30----29.65- 55.2- 55.2---
2024-05-27 04:30 pmWNW 27 30----29.65- 55.0- 55.0---
2024-05-27 04:20 pmWNW 27 32----29.64- 54.9- 54.9---
2024-05-27 04:10 pmWNW 26 31----29.63- 54.9- 54.9---
2024-05-27 04:00 pmWNW 26 31----29.63+0.06 55.0- 55.0---
2024-05-27 03:50 pmWNW 25 29----29.62- 54.9- 54.9---
2024-05-27 03:40 pmWNW 29 32----29.61- 54.7- 54.7---
2024-05-27 03:30 pmWNW 27 30----29.61- 54.3- 54.3---
2024-05-27 03:20 pmWNW 27 31----29.61- 54.9- 54.9---
2024-05-27 03:10 pmWNW 25 30----29.60- 54.9- 54.9---
2024-05-27 03:00 pmWNW 26 29----29.60+0.07 54.7- 54.7---
2024-05-27 02:50 pmWNW 28 31----29.59- 54.5- 54.5---
2024-05-27 02:40 pmWNW 26 29----29.59- 54.7- 54.7---
2024-05-27 02:30 pmWNW 27 31----29.59- 54.9- 54.9---
2024-05-27 02:20 pmWNW 25 30----29.59- 54.9- 54.9---
2024-05-27 02:10 pmWNW 24 28----29.59- 54.9- 54.9---
2024-05-27 02:00 pmWNW 26 28----29.58+0.09 54.5- 54.5---
2024-05-27 01:50 pmWNW 26 30----29.57- 54.5- 54.5---
2024-05-27 01:40 pmWNW 26 29----29.57- 54.1- 54.1---
2024-05-27 01:30 pmWNW 23 26----29.57- 54.0- 54.0---
2024-05-27 01:20 pmWNW 22 26----29.57- 54.0- 54.0---
2024-05-27 01:10 pmWNW 24 27----29.57- 53.2- 53.2---
2024-05-27 01:00 pmWNW 24 26----29.57+0.09 52.9- 52.9---
2024-05-27 12:50 pmWNW 26 28----29.56- 52.3- 52.3---
2024-05-27 12:40 pmWNW 24 28----29.56- 52.0- 52.0---
2024-05-27 12:30 pmWNW 23 26----29.56- 52.2- 52.2---
2024-05-27 12:20 pmWNW 22 25----29.55- 52.5- 52.5---
2024-05-27 12:10 pmWNW 23 25----29.54- 52.5- 52.5---
2024-05-27 12:00 pmWNW 20 23----29.53+0.07 52.5- 52.5---
2024-05-27 11:50 amWNW 21 24----29.52- 52.0- 52.0---
2024-05-27 11:40 amWNW 23 24----29.52- 52.0- 52.0---
2024-05-27 11:30 amWNW 21 24----29.51- 51.8- 51.8---
2024-05-27 11:20 amWNW 22 24----29.51- 51.4- 51.4---
2024-05-27 11:10 amWNW 22 24----29.49- 51.6- 51.6---
2024-05-27 11:00 amWNW 18 20----29.49+0.05 52.2- 52.2---
2024-05-27 10:50 amWNW 17 18----29.49- 52.2- 52.2---
2024-05-27 10:40 amWNW 17 19----29.49- 52.0- 52.0---
2024-05-27 10:30 amWNW 18 20----29.49- 51.6- 51.6---
2024-05-27 10:20 amWNW 20 21----29.48- 51.3- 51.3---
2024-05-27 10:10 am W 15 17----29.48- 51.8- 51.8---
2024-05-27 10:00 am W 16 18----29.48+0.04 51.8- 51.8---
2024-05-27 09:50 am W 16 17----29.48- 51.4- 51.4---
2024-05-27 09:40 am W 15 17----29.48- 51.8- 51.8---
2024-05-27 09:30 am W 18 22----29.47- 52.5- 52.5---
2024-05-27 09:20 am W 16 19----29.47- 53.2- 53.2---
2024-05-27 09:10 amWSW 16 18----29.46- 53.2- 53.2---
2024-05-27 09:00 am W 16 18----29.46+0.02 53.6- 53.6---
2024-05-27 08:50 amWSW 17 19----29.46- 53.4- 53.4---
2024-05-27 08:40 amWSW 16 17----29.46- 53.4- 53.4---
2024-05-27 08:30 amWSW 16 17----29.45- 53.4- 53.4---
2024-05-27 08:20 amWSW 16 18----29.46- 53.4- 53.4---
2024-05-27 08:10 amWSW 15 17----29.45- 53.6- 53.6---
2024-05-27 08:00 amWSW 14 15----29.45+0.01 54.0- 54.0---
2024-05-27 07:50 amWSW 14 16----29.44- 53.6- 53.6---
2024-05-27 07:40 amWSW 14 16----29.44- 53.6- 53.6---
2024-05-27 07:30 amWSW 15 16----29.44- 54.1- 54.1---
2024-05-27 07:20 amWSW 17 19----29.44- 54.3- 54.3---
2024-05-27 07:10 amWSW 15 17----29.44- 54.3- 54.3---
2024-05-27 07:00 am SW 15 17----29.44-0.01 54.9- 54.9---
2024-05-27 06:50 am SW 16 18----29.44- 54.7- 54.7---
2024-05-27 06:40 amSSW 15 17----29.44- 54.7- 54.7---
2024-05-27 06:30 amSSW 15 17----29.44- 55.0- 55.0---
2024-05-27 06:20 amSSW 15 16----29.44- 55.0- 55.0---
2024-05-27 06:10 amSSW 16 18----29.44- 55.0- 55.0---
2024-05-27 06:00 amSSW 15 17----29.44-0.02 55.4- 55.4---
2024-05-27 05:50 am S 15 17----29.44- 56.1- 55.2---
2024-05-27 05:40 amSSW 14 15----29.44- 56.3- 55.2---
2024-05-27 05:30 amSSW 13 15----29.44- 56.1- 55.4---
2024-05-27 05:20 amSSW 14 15----29.44- 55.9- 55.2---
2024-05-27 05:10 amSSW 15 17----29.44- 55.9- 55.0---
2024-05-27 05:00 am S 13 15----29.44-0.05 56.1- 55.2---
2024-05-27 04:50 am S 14 16----29.44- 56.3- 55.2---
2024-05-27 04:40 amSSW 14 15----29.45- 56.1- 54.9---
2024-05-27 04:30 amSSW 13 14----29.44- 56.7- 55.0---
2024-05-27 04:20 amSSW 15 17----29.44- 56.8- 55.0---
2024-05-27 04:10 amSSW 13 15----29.44- 56.7- 55.2---
2024-05-27 04:00 amSSW 13 15----29.45+0.00 57.0- 55.4---
2024-05-27 03:50 amSSW 12 13----29.45- 57.0- 55.6---
2024-05-27 03:40 amSSW 12 14----29.46- 57.4- 55.0---
2024-05-27 03:30 amSSW 10 12----29.46- 57.4- 55.0---
2024-05-27 03:20 am S 10 11----29.46- 57.4- 55.6---
2024-05-27 03:10 am SW 11 13----29.46- 57.4- 55.9---
2024-05-27 03:00 am SW 11 13----29.46+0.00 57.4- 56.5---
2024-05-27 02:50 amSSW 12 13----29.47- 57.7- 57.0---
2024-05-27 02:40 amSSW 11 12----29.47- 57.7- 57.6---
2024-05-27 02:30 amSSW 9 11----29.48- 58.1- 57.2---
2024-05-27 02:20 amSSW 10 11----29.48- 57.9- 56.8---
2024-05-27 02:10 amSSW 11 12----29.49- 57.9- 57.6---
2024-05-27 02:00 amSSW 11 13----29.49+0.00 57.9- 57.9---
2024-05-27 01:50 amSSW 14 15----29.49- 58.3- 58.3---
2024-05-27 01:40 amSSW 14 16----29.48- 59.7- 59.7---
2024-05-27 01:30 am S 17 18----29.47- 61.2- 61.0---
2024-05-27 01:20 amSSE 16 20----29.46- 65.5- 63.3---
2024-05-27 01:10 am SE 16 20----29.46- 65.7- 63.3---
2024-05-27 01:00 amESE 13 17----29.45-0.04 65.3- 63.3---
2024-05-27 12:50 amESE 15 19----29.46- 65.1- 63.3---
2024-05-27 12:40 amESE 12 17----29.45- 64.8- 63.3---
2024-05-27 12:30 amESE 14 19----29.45- 64.8- 63.1---
2024-05-27 12:20 amESE 13 17----29.45- 64.6- 63.0---
2024-05-27 12:10 amESE 15 18----29.45- 64.4- 63.0---
2024-05-27 12:00 am E 19 22----29.45-0.06 64.6- 62.8---
2024-05-26 11:50 pm E 15 19----29.46- 64.4- 63.0---
2024-05-26 11:40 pm E 14 18----29.46- 64.0- 63.0---
2024-05-26 11:30 pm E 13 16----29.47- 63.9- 63.0---
2024-05-26 11:20 pm E 14 18----29.47- 63.9- 63.0---
2024-05-26 11:10 pm E 14 18----29.48- 64.0- 63.0---
2024-05-26 11:00 pm E 13 16----29.49-0.04 63.9- 63.0---
2024-05-26 10:50 pm E 13 15----29.50- 63.9- 63.0---
2024-05-26 10:40 pm E 11 14----29.50- 63.9- 63.0---
2024-05-26 10:30 pm E 12 15----29.50- 63.9- 63.0---
2024-05-26 10:20 pm E 13 16----29.50- 63.9- 63.0---
2024-05-26 10:10 pm E 14 17----29.50- 64.0- 62.8---
2024-05-26 10:00 pm E 12 15----29.50-0.05 63.9- 63.0---
2024-05-26 09:50 pm E 14 17----29.50- 64.0- 63.0---
2024-05-26 09:40 pm E 15 18----29.50- 64.0- 63.0---
2024-05-26 09:30 pm E 14 19----29.51- 64.2- 63.1---
2024-05-26 09:20 pm E 11 15----29.51- 64.0- 63.3---
2024-05-26 09:10 pm E 11 13----29.50- 63.9- 63.1---
2024-05-26 09:00 pm E 11 15----29.52-0.09 64.0- 63.1---
2024-05-26 08:50 pm E 10 14------ 64.2- 63.1---
2024-05-26 08:40 pm E 10 12----29.53- 64.2- 63.3---
2024-05-26 08:30 pmENE 9 13------ 63.9- 63.7---
2024-05-26 08:20 pm E 10 13------ 63.7- 63.3---
2024-05-26 08:10 pm E 12 14------ 63.5- 63.1---
2024-05-26 08:00 pm E 8 11----29.53-0.09 63.3- 63.1---
2024-05-26 07:50 pm E 10 12------ 63.3- 63.1---
2024-05-26 07:40 pmENE 12 15----29.53- 62.8- 62.8---
2024-05-26 07:30 pmENE 12 16----29.53- 62.4- 62.2---
2024-05-26 07:20 pmENE 10 15----29.54- 62.2- 62.2---
2024-05-26 07:10 pmENE 10 12----29.55- 62.2- 62.2---
2024-05-26 07:00 pmENE 9 11----29.55-0.05 62.1- 62.1---
2024-05-26 06:50 pm NE 10 12----29.56- 61.7- 61.7---
2024-05-26 06:40 pmENE 6 8----29.57- 61.3- 61.3---
2024-05-26 06:30 pm NE 6 7----29.58- 61.0- 61.0---
2024-05-26 06:20 pm NE 6 7----29.59- 61.0- 61.0---
2024-05-26 06:10 pmENE 4 5----29.59- 60.4- 60.3---
2024-05-26 06:00 pm NE 3 5----29.60-0.01 59.7- 59.7---
2024-05-26 05:50 pmSSW 2 3----29.61- 59.4- 59.4---